Dewpoint
49 50 53 54 54 52 51 51 52 50 49 49 49 49 50 50 49 50 51 50 51 51 52 53 55 57 58 60 64 66 67 65
47 46 46 50 51 50 50 50 48 48 47 47 47 46 46 47 46 48 48 48 48 48 48 48 49 50 52 54 56 64 66 65
46 45 45 45 46 46 47 47 46 44 43 45 43 44 43 42 45 45 45 45 44 45 45 45 46 45 48 50 53 60 63 65
44 45 44 43 41 42 42 42 42 42 42 41 41 41 41 40 41 42 41 41 41 41 42 41 40 40 41 44 47 50 55 62
42 43 44 42 41 40 39 39 40 39 39 38 38 37 37 36 37 38 37 36 36 36 38 38 41 41 39 41 42 44 48 54
40 41 40 40 39 38 39 38 37 36 36 36 35 33 34 34 34 34 34 34 34 35 36 37 38 39 39 39 40 41 41 45
39 38 38 38 39 38 38 36 35 34 34 35 34 32 33 33 33 32 33 33 33 34 34 34 35 36 37 38 38 38 40 41
38 37 37 38 38 38 37 35 34 32 32 33 34 32 33 32 32 32 32 32 33 33 33 33 34 34 35 35 36 37 37 39
37 37 37 37 36 35 35 34 32 31 31 33 33 33 32 32 32 32 31 32 32 31 32 32 32 32 32 32 33 34 35 38
35 35 36 36 35 33 32 32 31 30 30 31 32 33 33 31 31 31 32 30 30 30 30 31 31 31 31 31 32 33 33 35
34 36 35 35 34 32 31 31 29 29 29 30 31 32 32 31 31 31 30 29 29 30 30 31 30 31 31 32 32 33 33 33
34 34 35 35 33 32 30 29 29 29 28 29 30 31 31 30 30 31 29 28 29 30 30 30 30 31 31 30 31 32 34 35
33 33 34 33 32 31 30 27 27 27 28 29 30 30 30 29 29 30 29 29 29 29 29 29 29 30 30 30 31 33 36 36
33 32 32 32 30 30 29 28 27 27 27 28 29 30 30 28 29 29 29 28 29 29 29 29 29 31 31 30 28 30 32 31
33 32 31 30 30 29 28 28 26 25 26 26 28 29 30 29 29 28 28 28 28 28 28 30 29 30 31 31 28 27 30 30
33 32 30 29 28 25 22 18 18 25 26 26 27 28 29 28 28 28 27 27 27 27 28 29 28 28 30 32 32 32 30 29
33 31 30 29 27 25 22 22 24 25 25 24 25 27 28 27 27 27 27 26 27 27 27 27 28 28 28 28 29 31 33 32
32 30 29 28 26 25 24 23 22 20 20 21 23 26 26 24 24 26 26 26 26 26 27 27 26 27 27 28 28 29 30 32
31 29 28 28 26 25 24 23 22 20 20 21 20 22 23 21 21 23 24 25 25 26 26 25 25 25 26 27 27 28 32 32
31 29 28 27 25 24 24 23 22 21 21 21 20 22 23 20 20 21 23 24 24 25 25 24 25 25 25 26 27 28 31 32
Wind_Speed
11 10 15 20 21 22 22 23 23 23 23 21 21 20 20 20 20 20 21 20 20 20 20 19 19 18 18 19 17 15 15 13
10 10 11 14 17 21 22 23 23 22 22 21 17 18 18 19 20 21 21 21 20 20 21 20 19 17 18 19 20 15 12 15
9 10 11 14 15 15 19 20 20 19 17 19 17 15 16 16 18 20 20 21 20 21 20 19 18 14 15 19 17 9 12 13
9 9 11 13 13 14 15 15 17 17 16 16 13 12 13 12 13 17 18 21 18 20 20 19 17 14 13 13 11 14 12 13
9 10 11 12 12 11 11 11 11 13 16 14 11 10 11 11 11 13 14 17 15 17 16 14 16 15 15 14 14 14 12 13
9 10 12 12 11 12 11 11 11 12 13 14 12 12 13 13 12 13 13 13 15 14 13 15 16 16 16 17 17 16 14 15
9 9 10 10 12 11 11 11 12 11 12 14 12 11 11 11 11 12 12 14 15 15 15 16 16 16 17 17 18 19 19 17
9 10 10 10 12 12 11 10 10 11 12 13 14 12 12 11 12 12 13 15 15 15 16 17 17 18 19 18 19 20 20 20
11 10 9 11 11 11 10 10 10 11 11 13 13 12 11 11 10 11 13 13 15 14 15 15 16 17 19 20 20 20 20 21
10 9 10 10 10 10 10 10 10 10 9 9 11 12 12 10 10 11 14 13 14 14 15 17 17 17 19 19 19 20 22 22
13 10 10 10 10 10 11 11 9 8 8 9 10 11 11 10 10 11 13 12 12 13 14 15 18 19 20 20 21 21 21 20
14 11 11 11 10 9 8 8 7 7 7 9 10 11 12 10 9 10 12 11 12 13 16 15 16 19 22 22 21 20 16 15
13 12 11 10 7 5 3 4 4 6 7 9 10 11 11 10 9 10 11 10 11 13 13 17 17 18 19 23 13 14 6 13
13 11 10 8 5 4 3 5 5 6 6 8 10 9 9 9 9 9 10 11 12 14 15 15 13 15 14 16 13 11 12 27
15 12 9 6 7 8 6 6 4 2 5 6 7 7 8 10 9 9 10 10 11 13 13 15 14 15 13 6 7 7 26 10
15 12 10 7 7 6 5 4 4 2 2 3 3 7 7 10 10 10 11 11 12 12 12 13 14 15 13 4 12 14 5 15
15 13 10 8 7 7 7 7 6 4 3 4 6 6 7 9 10 11 12 11 11 12 12 13 11 12 13 15 15 14 14 11
17 15 11 8 7 8 7 8 7 5 5 7 6 5 6 11 12 11 11 11 11 12 12 12 12 13 13 14 14 9 11 12
17 15 12 9 8 7 8 8 8 8 6 6 6 5 8 13 13 12 10 10 10 11 11 11 13 13 14 15 15 15 14 14
20 17 15 11 9 8 7 8 7 6 6 5 4 6 8 10 10 10 10 10 11 10 9 11 13 13 15 17 17 15 14 13
Wind_Direction
85 85 79 79 79 78 76 73 72 69 65 61 58 53 48 43 39 35 32 28 25 20 15 9 3 2 358 358 345 314 276 258
89 85 87 87 84 78 75 73 70 66 62 57 54 49 43 38 33 29 27 22 19 16 11 7 359 354 351 348 342 315 282 265
76 78 79 84 86 79 75 71 64 59 54 48 45 40 32 29 28 23 20 15 11 7 3 358 354 349 345 341 334 324 313 280
69 75 79 86 81 74 71 65 61 56 50 47 44 40 33 26 22 18 15 9 3 358 354 350 350 341 332 333 327 319 305 290
76 79 73 77 75 72 66 63 61 55 47 41 41 38 29 25 18 14 8 6 1 353 350 349 339 334 326 319 315 308 298 293
88 82 83 78 82 76 76 71 63 55 46 38 35 31 26 22 18 11 8 1 353 350 343 335 329 324 319 312 307 301 294 290
98 96 91 85 81 80 75 69 63 60 53 43 39 37 30 21 17 10 4 355 352 345 339 333 325 320 314 310 305 299 294 289
115 100 92 90 88 82 79 72 66 60 53 42 39 34 25 19 14 9 2 353 346 338 334 328 323 319 314 311 303 299 294 288
125 115 106 101 95 88 82 73 66 57 51 43 38 34 24 17 12 5 357 346 339 336 332 329 322 319 311 309 305 297 292 289
134 126 117 107 102 93 85 73 67 60 54 47 40 34 25 18 12 3 353 347 343 341 338 332 326 319 315 311 305 301 293 285
138 136 130 121 110 100 88 77 68 60 51 43 35 33 23 15 10 1 350 347 346 341 336 331 323 320 316 310 305 297 293 290
147 148 146 139 123 110 95 83 74 64 53 45 36 32 21 13 6 359 354 349 350 346 337 335 325 325 321 313 309 297 294 297
153 154 160 162 156 159 140 114 97 69 55 46 40 31 19 12 6 359 356 354 348 347 342 338 335 339 327 330 315 311 297 338
159 161 165 175 155 139 135 157 109 75 52 46 36 24 16 10 6 3 359 352 353 352 346 342 335 350 336 320 337 328 341 324
167 161 146 141 136 134 132 118 115 95 41 37 29 21 16 11 9 7 2 360 356 350 344 343 331 338 348 322 330 318 332 308
164 152 152 149 163 163 149 125 130 98 69 33 29 29 20 15 9 6 8 3 358 347 345 344 342 333 332 339 304 294 314 318
160 157 155 155 140 127 112 116 128 136 109 53 42 29 20 13 11 11 11 4 356 344 350 353 343 330 328 322 314 308 273 264
163 160 156 147 138 122 140 153 138 109 58 42 26 7 8 18 11 12 8 4 351 351 355 353 351 343 337 326 316 311 304 293
166 162 158 155 140 151 160 129 95 76 59 43 23 7 17 13 8 6 3 360 354 360 358 355 0 352 340 327 317 305 298 303
166 167 162 160 165 164 140 105 97 86 68 53 34 29 26 11 7 7 0 0 2 1 3 4 2 357 349 342 328 318 309 304